Regional Weather Roundup
Issued by NWS Grand Forks, ND

Home | Current Version | Previous Version | Text Only | Print | Product List | Glossary Off
Versions: 1 2 3 4 5 6 7 8 9 10 11 12 13 14 15 16 17 18 19 20 21 22 23 24 25 26 27 28 29 30 31 32 33 34 35 36 37 38 39 40 41 42 43 44 45 46 47 48 49 50

000
ASUS43 KFGF 220710
RWRFGF
PRAIRIE TO PINES  WEATHER ROUNDUP
NATIONAL WEATHER SERVICE EASTERN NORTH DAKOTA/GRAND FORKS ND
100 AM CST WED NOV 22 2017

 **SATELLITE DATA USED TO AUGMENT SKY COVER AT AUTOMATED STATIONS**
 *****  WEATHER ACROSS EASTERN NORTH DAKOTA  *****

CITY           SKY/WX    TMP DP  RH WIND       PRES   REMARKS
GRAND FORKS    FAIR       8   5  87 S6        30.30F WCI  -2
GRAND FRKS AFB FAIR      10   5  81 SW8       30.29F WCI  -3
GRAND FRKS NWS   N/A     12 N/A N/A SW5         N/A  WCI   4
DEVILS LAKE    FAIR       8   4  83 SW3       30.23F
FARGO          FAIR      11   7  84 SW6       30.34S WCI   1
WAHPETON ARPT  NOT AVBL
$$

 ***** WEATHER ACROSS CENTRAL AND WESTERN NORTH DAKOTA  *****

CITY           SKY/WX    TMP DP  RH WIND       PRES   REMARKS
BISMARCK       FAIR       9   5  84 E5        30.23F WCI   1
MINOT          FAIR       9   3  77 SE7       30.15F WCI  -2
JAMESTOWN      FAIR       4   1  88 S5        30.26F WCI  -5
MINOT AFB      FAIR       7   2  79 SE6       30.13F WCI  -3
GARRISON         N/A     14  11  87 S8        30.15F WCI   3
WILLISTON      FAIR      15   4  61 CALM      30.06F
DICKINSON      FAIR      22   8  55 S15       30.05F WCI   9
HETTINGER      FAIR      15   4  61 S5        30.14F WCI   8
$$

 *****  OTHER AIRPORT OBSERVATIONS IN OUR AREA  *****

CITY           SKY/WX    TMP DP  RH WIND       PRES   REMARKS
WALHALLA       FAIR      10   9  92 W5        30.25F WCI   2
GRAFTON AIRPOR FAIR       5   3  92 SW9       30.30F WCI  -9
VALLEY CITY AR FAIR       5   5 100 SW3       30.30F
CANDO          FAIR       3   1  92 SW5       30.23F WCI  -6
CAVALIER APRT  FAIR       7   5  92 S5        30.26F WCI  -2
GWINNER          N/A      5   1  85 CALM      30.32F
SHEYENNE NWR     N/A      6   2  84 CALM      29.95S
ROLLA          FAIR       5   0  78 W5        30.16F WCI  -4
 ***** THE ABOVE OBSERVATIONS ARE NON NWS ARE NOT QUALITY
       CONTROLLED AND MAY MIS-REPORT RAIN FOR SNOW...
$$

  *****  WEATHER ACROSS NORTHERN MINNESOTA  *****

CITY           SKY/WX    TMP DP  RH WIND       PRES   REMARKS
FLAG ISLAND    FAIR       9   7  92 SW3       30.22F
WARROAD        FAIR      10   7  85 SW6       30.26S WCI   1
ROSEAU         FAIR      12   7  79 SW7       30.26S WCI   2
HALLOCK        FAIR       5   1  85 S7        30.27F WCI  -7
THF RVR FALLS  FAIR       8   6  92 SW5       30.30F WCI   0
BAUDETTE       FAIR       8   5  87 SW6       30.24S WCI  -2
WASKISH        FAIR      12  10  92 W6        30.27S WCI   3
CROOKSTON      FAIR      10   9  92 W5        30.33F WCI   2
STEPHEN NDAWN    N/A      7   3  85 S3          N/A
GREENBUSH NDAW   N/A      9   7  92 S6          N/A  WCI  -1
$$
  *****  WEATHER ACROSS CENTRAL AND WEST MINNESOTA  *****

CITY           SKY/WX    TMP DP  RH WIND       PRES   REMARKS
FOSSTON        FAIR       7   3  85 W3        30.30F
BEMIDJI        FAIR       9   6  89 W7        30.29R WCI  -2
PARK RAPIDS    FAIR      10   5  80 W7        30.29R WCI  -1
ELBOW LAKE     FAIR      10   8  89 NW3       30.33F
WADENA         FAIR      10   7  85 W3        30.30S
DETROIT LAKES  FAIR      12  10  92 W6        30.31S WCI   3
MOORHEAD       FAIR       9   3  78 CALM      30.35F
FERGUS FALLS   FAIR       9   7  92 W3        30.38S
MORRIS MN      FAIR      10   7  85 W3        30.33F
STAPLES        FAIR       7   3  85 W5        30.30S WCI  -2
$$
  *****  WEATHER ELSEWHERE ACROSS MINNESOTA  *****

CITY           SKY/WX    TMP DP  RH WIND       PRES   REMARKS
DULUTH         FAIR      14   9  80 NW12      30.23R WCI   0
INTRNTL FALLS    N/A      8   4  83 W5        30.24S WCI   0
ELY            FLURRIES  14  10  85 W9        30.22R WCI   2
CLOQUET        CLOUDY    18   9  68 W10       30.26R WCI   6
WHEATON        FAIR      10   7  85 S3        30.37F
BRAINERD       FAIR      15   9  76 NW5       30.30S WCI   8
HIBBING        FAIR      11   7  84 W6        30.26R WCI   1
ALEXANDRIA     FAIR      12   9  87 W6        30.31F WCI   3
SAINT CLOUD    FAIR      14   9  80 NW7       30.33F WCI   4
MINNEAPOLIS    FAIR      18  11  74 NW8       30.35R WCI   8
$$

  *****  WEATHER ACROSS SOUTH DAKOTA  *****

CITY           SKY/WX    TMP DP  RH WIND       PRES   REMARKS
SIOUX FALLS    FAIR      14   8  77 CALM      30.36F
BROOKINGS      FAIR      12   7  80 CALM      30.34R
WATERTOWN      FAIR       9   6  88 SW7       30.31R WCI  -2
HURON          FAIR       9   5  84 CALM      30.35F
SISSETON         N/A     12   6  77 W3        30.33F
ABERDEEN       FAIR       2   0  91 S6        30.33F WCI  -9
MITCHELL       FAIR      13   9  84 SW5       30.37F WCI   5
PIERRE         FAIR      14   8  77 SE5       30.28F WCI   6
MOBRIDGE       FAIR      15   9  76 SE6       30.23F WCI   6
RAPID CITY     FAIR      24  17  74 SE5       30.14F WCI  18
$$

  *****  SOME WEATHER IN NEARBY STATES *****

CITY           SKY/WX    TMP DP  RH WIND       PRES   REMARKS
GLASGOW MT     FAIR      19  10  68 E10       29.94F WCI   7
GREAT FALLS MT FAIR      53  37  54 SW35G45   29.94F
CHEYENNE WY    FAIR      38  31  76 SW3       30.23F
SCOTTSBLUFF NE FAIR      32  25  75 E6        30.20F
OMAHA NE       FAIR      20  10  65 CALM      30.43S
DES MOINES IA  FAIR      20  12  71 NW7       30.38R WCI  11
DAVENPORT IA   FAIR      21  15  78 NW8       30.32S WCI  11
CHICAGO IL     FAIR      27  14  58 NW12      30.22R WCI  17
EAU CLAIRE WI  FAIR      16   8  71 NW9       30.32R WCI   4
LA CROSSE WI   FAIR      23  12  62 NW10      30.31R WCI  12
$$

  *****  SOME NATIONAL WEATHER *****

CITY           SKY/WX    TMP DP  RH WIND       PRES   REMARKS
LA GUARDIA NY  NOT AVBL
RALEIGH NC     LGT RAIN  52  50  93 N6        29.97F
ATLANTA GA     CLOUDY    55  54  96 CALM      30.04R
NEW ORLEANS LA LGT RAIN  62  57  83 N6        30.05R
OKLAHOMA CITY  FAIR      36  10  34 N13       30.35S
ALBUQUERQUE NM FAIR      49  22  34 NE10      30.40R
SALT LAKE CITY MOCLDY    49  41  74 S7        30.38R
LOS ANGELES CA FAIR      69  50  50 CALM      30.03S
BOISE ID       LGT RAIN  54  49  83 SE10      30.27R
SEATTLE WA     CLOUDY    57  56  96 S3        29.94S
$$

*** WEATHER ACROSS MANITOBA...SASKATCHEWAN AND ONTARIO ***
                ***ONTARIO***

CITY           SKY/WX    TMP DP  RH WIND       PRES   REMARKS
GERALDTON      FLURRIES  16  12  86 W8        30.01R WCI   5
THUNDER BAY    PTCLDY    16  12  86 W8        30.19R WCI   5
SIOUX LOOKOUT  FLURRIES  14   9  79 W9        30.14S WCI   2
TORONTO        CLOUDY    36  25  64 NW14G21   29.94R
BIG TROUT LK   FLURRIES  14  10  85 W17       29.90R WCI  -3
PICKLE LAKE    NOT AVBL
DRYDEN         MOCLDY    10   9  92 W8        30.15F WCI  -1
KENORA         NOT AVBL
$$
                *** MANITOBA***

CITY           SKY/WX    TMP DP  RH WIND       PRES   REMARKS
BRANDON        CLEAR     -2  -6  84 SW8       30.18F WCI -17
DAUPHIN        CLEAR      5   1  85 SW7       30.15F WCI  -7
ISLAND LAKE    MOCLDY     9   3  78 W13       30.04S WCI  -7
PILOT MOUND      N/A      5   1  85 W5          N/A  WCI  -4
THE PAS        PTCLDY     3   0  85 W6        30.07F WCI  -8
THOMPSON       CLOUDY     5   1  85 SW2       29.99F
WINNIPEG       CLEAR      9   5  85 SW7       30.24F WCI  -3
LYNN LAKE      CLOUDY     9   7  92 SW7       29.91F WCI  -3
CHURCHILL      CLEAR      9   3  78 W18G30    29.75S WCI -10
GILLAM         FLURRIES   7   1  78 W15G22    29.92S WCI -11
$$
                ***SASKATCHEWAN***

CITY           SKY/WX    TMP DP  RH WIND       PRES   REMARKS
ESTEVAN        PTCLDY     5   0  78 E8        30.06F WCI  -8
KINDERSLEY     CLOUDY     9   3  78 E9        29.83F WCI  -5
LLOYDMINSTER   CLOUDY     3  -2  78 S9        29.85F WCI -11
PRINCE ALBERT  CRYSTALS  -4  -8  84 SW6       30.02F WCI -16
REGINA         CLOUDY     5   0  78 SE15G22   30.00F WCI -13
YORKTON        PTCLDY    -4  -8  84 SE5       30.08F WCI -15
N. BATTLEFORD  CLOUDY     0  -6  78 E8        29.95F WCI -15
LA RONGE       FLURRIES   3   0  85 S2        29.97F
SASKATOON      MOCLDY     3  -2  78 SE5       29.98F WCI  -6
SWIFT CURRENT  CLOUDY    21  14  73 S13G24    29.82S WCI   9
$$
NOTE: THESE ARE AUTOMATED STATIONS WITH LIMITED QUALITY CONTROL
      "FAIR" INDICATES FEW OR NO CLOUDS BELOW 12,000 FEET WITH NO
      SIGNIFICANT WEATHER AND/OR OBSTRUCTIONS TO VISIBILITY.
      SKY/WX - SKY CONDITION AND SIGNIFICANT WEATHER.
      TMP - AIR TEMPERATURE.    DP   - DEWPOINT TEMPERATURE.
      RH  - RELATIVE HUMIDITY.  PRES - PRESSURE.
      HX  - HEAT INDEX.         WCI  - WIND CHILL INDEX.
$




USA.gov is the U.S. government's official web portal to all federal, state and local government web resources and services.